Tracking 34223 objects as of 31-May-2026
HD Live streaming from Space Station
objects crossing your sky now

CHINASAT 2D

Track CHINASAT 2D now!


NORAD ID: 43920
Int'l Code: 2019-001A
Perigee: 35,788.6 km
Apogee: 35,798.0 km
Inclination: 0.0 °
Period: 1,436.1 minutes
Semi major axis: 42164 km
RCS: Unknown
Launch date: January 10, 2019
Source: People's Republic of China (PRC)
Launch site: Xichang Space Center, China (XSC)
Your satellite tracking list
Your tracking list is empty




NASA's NSSDC Master Catalog

Two Line Element Set (TLE):
1 43920U 19001A   26151.17046343 -.00000324  00000-0  00000+0 0  9991
2 43920   0.0243  44.2056 0001107 317.6910  78.1650  1.00273317 53904
Source of the keplerian elements: AFSPC